Temp
-14 -14 -14 -13 -13 -13 -13 -13 -13 -12 -12 -12 -12 -13 -13 -13 -13 -13 -13 -13 -12 -12 -13 -13 -13 -13 -14 -14 -13 -13 -13 -13 -13 -13 -13 -13 -13 -13 -13 -13 -13 -13
-15 -15 -15 -14 -14 -14 -13 -13 -13 -13 -13 -13 -13 -13 -13 -13 -13 -13 -13 -13 -13 -13 -13 -13 -13 -13 -14 -14 -14 -14 -13 -13 -13 -13 -13 -13 -13 -13 -13 -13 -13 -13
-16 -16 -15 -15 -15 -14 -14 -14 -14 -13 -13 -13 -13 -13 -13 -14 -14 -14 -14 -14 -14 -14 -13 -13 -13 -14 -14 -14 -15 -14 -14 -14 -14 -14 -14 -14 -14 -13 -13 -14 -14 -14
-17 -16 -16 -16 -15 -15 -15 -14 -14 -14 -14 -14 -14 -14 -14 -14 -14 -14 -14 -14 -14 -14 -14 -14 -14 -14 -14 -15 -15 -15 -15 -15 -14 -14 -14 -14 -14 -14 -14 -14 -14 -14
-17 -17 -16 -16 -16 -16 -15 -15 -15 -15 -15 -14 -14 -15 -15 -15 -15 -15 -15 -15 -15 -15 -15 -15 -15 -15 -15 -15 -15 -15 -15 -15 -15 -15 -15 -15 -15 -14 -14 -14 -14 -14
-17 -17 -17 -17 -16 -16 -16 -16 -15 -15 -15 -15 -15 -15 -15 -15 -15 -15 -15 -16 -16 -15 -15 -15 -15 -15 -15 -15 -15 -15 -15 -15 -15 -15 -15 -15 -15 -15 -15 -15 -15 -15
-18 -18 -17 -17 -17 -17 -17 -16 -16 -16 -16 -16 -16 -16 -16 -16 -15 -15 -16 -16 -16 -16 -16 -16 -16 -16 -16 -16 -16 -16 -16 -16 -16 -15 -15 -15 -15 -15 -15 -15 -15 -15
-18 -18 -18 -18 -17 -17 -17 -17 -17 -17 -17 -17 -16 -16 -17 -17 -16 -16 -16 -16 -16 -17 -16 -16 -16 -16 -16 -16 -16 -16 -16 -16 -16 -16 -16 -15 -15 -15 -16 -16 -15 -15
-18 -18 -18 -18 -18 -18 -17 -17 -17 -17 -17 -17 -17 -17 -18 -18 -17 -17 -17 -17 -17 -17 -17 -17 -17 -17 -16 -16 -16 -17 -17 -17 -16 -16 -16 -16 -16 -16 -16 -16 -16 -16
-19 -18 -18 -18 -18 -18 -18 -18 -18 -18 -18 -18 -18 -18 -18 -18 -18 -18 -17 -17 -17 -17 -17 -17 -17 -17 -17 -17 -17 -17 -17 -17 -17 -17 -17 -16 -16 -16 -16 -16 -16 -16
-20 -19 -19 -19 -18 -18 -18 -18 -18 -18 -18 -18 -18 -18 -18 -18 -18 -18 -18 -18 -18 -18 -18 -18 -18 -17 -17 -17 -17 -17 -17 -17 -17 -17 -17 -17 -17 -17 -17 -17 -17 -17
-20 -20 -20 -20 -20 -19 -19 -19 -19 -19 -19 -19 -19 -19 -18 -18 -18 -18 -18 -18 -18 -18 -18 -18 -18 -18 -18 -18 -18 -18 -18 -18 -18 -17 -17 -17 -17 -17 -17 -17 -17 -17
-20 -20 -20 -20 -20 -20 -20 -20 -20 -20 -19 -19 -19 -19 -19 -19 -19 -19 -19 -18 -18 -18 -18 -18 -18 -19 -19 -19 -18 -18 -18 -18 -18 -18 -18 -18 -18 -18 -18 -18 -18 -17
-20 -20 -20 -20 -20 -20 -20 -20 -20 -20 -20 -20 -20 -20 -20 -20 -20 -20 -20 -19 -19 -18 -18 -18 -18 -18 -19 -19 -19 -19 -19 -19 -18 -18 -18 -18 -18 -18 -18 -18 -18 -18
-21 -21 -21 -21 -21 -21 -21 -21 -21 -21 -20 -20 -20 -20 -20 -20 -20 -20 -20 -20 -20 -20 -19 -19 -19 -19 -19 -19 -19 -19 -19 -19 -19 -19 -18 -19 -19 -19 -19 -19 -19 -18
-22 -22 -22 -21 -21 -21 -21 -21 -21 -21 -21 -21 -21 -21 -20 -20 -20 -20 -20 -20 -20 -20 -20 -20 -20 -20 -20 -20 -20 -20 -20 -20 -19 -19 -19 -19 -19 -19 -19 -19 -19 -19
-22 -22 -22 -22 -22 -22 -22 -22 -22 -22 -22 -22 -22 -22 -22 -21 -21 -21 -21 -20 -20 -20 -20 -21 -21 -21 -21 -21 -21 -21 -21 -20 -20 -20 -19 -19 -19 -19 -19 -19 -19 -19
-23 -23 -23 -23 -23 -23 -23 -23 -23 -23 -23 -23 -23 -23 -23 -23 -22 -22 -21 -21 -21 -20 -20 -21 -21 -21 -21 -21 -21 -21 -21 -21 -21 -20 -20 -20 -19 -19 -19 -19 -19 -19
-24 -24 -24 -24 -24 -24 -23 -23 -23 -23 -23 -23 -23 -23 -23 -23 -23 -23 -23 -22 -22 -21 -21 -20 -21 -21 -21 -21 -21 -21 -21 -21 -21 -21 -21 -20 -20 -20 -19 -19 -19 -19
-24 -24 -24 -24 -24 -24 -24 -24 -24 -24 -24 -24 -23 -23 -23 -23 -23 -23 -23 -23 -23 -22 -22 -21 -21 -21 -21 -21 -21 -21 -21 -21 -21 -21 -21 -21 -21 -20 -20 -20 -19 -19
-25 -25 -25 -25 -25 -25 -25 -24 -24 -24 -24 -24 -24 -24 -23 -23 -23 -23 -23 -23 -23 -23 -23 -22 -22 -21 -21 -21 -21 -21 -21 -21 -21 -21 -21 -21 -21 -21 -20 -20 -20 -19
-26 -26 -26 -26 -26 -25 -25 -25 -25 -25 -25 -25 -24 -24 -24 -24 -23 -23 -23 -23 -23 -23 -23 -23 -23 -22 -21 -21 -21 -21 -21 -21 -21 -21 -21 -21 -22 -21 -21 -21 -20 -20
-27 -27 -27 -27 -27 -27 -26 -26 -26 -26 -26 -26 -25 -25 -25 -24 -24 -24 -23 -23 -23 -23 -23 -23 -23 -23 -23 -22 -21 -21 -21 -21 -21 -21 -21 -21 -21 -22 -22 -21 -21 -21
-28 -28 -28 -28 -28 -28 -28 -28 -27 -27 -27 -27 -27 -26 -26 -25 -25 -24 -24 -24 -24 -23 -23 -23 -23 -23 -23 -23 -23 -22 -22 -22 -22 -22 -21 -21 -21 -21 -22 -22 -22 -21
-29 -29 -29 -29 -29 -28 -28 -28 -28 -28 -28 -28 -27 -27 -27 -26 -26 -25 -25 -24 -24 -24 -24 -24 -23 -23 -23 -24 -24 -23 -23 -22 -22 -22 -22 -22 -21 -21 -21 -22 -22 -22
-29 -29 -29 -29 -29 -29 -29 -28 -28 -28 -28 -28 -28 -28 -27 -27 -27 -27 -26 -25 -25 -25 -25 -24 -24 -24 -24 -24 -24 -24 -24 -24 -23 -22 -22 -22 -22 -22 -21 -21 -21 -22
Height
5672 5671 5671 5671 5670 5670 5669 5668 5668 5668 5667 5667 5667 5666 5666 5667 5667 5667 5667 5668 5668 5668 5668 5669 5670 5670 5671 5671 5671 5671 5672 5671 5672 5672 5672 5673 5676 5676 5677 5678 5678 5678
5662 5662 5661 5661 5661 5660 5660 5659 5659 5659 5658 5657 5657 5657 5657 5657 5657 5657 5658 5658 5659 5659 5659 5659 5660 5660 5661 5662 5662 5663 5663 5663 5664 5664 5664 5666 5667 5668 5669 5670 5670 5671
5652 5652 5652 5652 5652 5651 5651 5650 5650 5650 5649 5648 5648 5648 5648 5648 5647 5647 5648 5648 5649 5649 5649 5649 5650 5650 5651 5651 5652 5653 5655 5655 5656 5656 5656 5657 5658 5658 5660 5660 5661 5663
5643 5643 5643 5643 5643 5642 5642 5642 5641 5641 5641 5640 5640 5640 5639 5639 5639 5639 5639 5639 5639 5639 5639 5639 5640 5640 5640 5641 5642 5643 5645 5645 5647 5647 5647 5649 5650 5650 5651 5651 5652 5654
5634 5633 5633 5633 5633 5633 5633 5632 5632 5631 5631 5631 5631 5631 5631 5630 5630 5629 5630 5629 5629 5629 5629 5629 5630 5630 5630 5631 5632 5633 5634 5635 5637 5637 5637 5640 5641 5642 5643 5642 5643 5645
5624 5624 5623 5623 5623 5623 5623 5623 5622 5622 5622 5622 5622 5622 5621 5621 5620 5620 5620 5620 5620 5620 5620 5620 5620 5620 5620 5621 5622 5623 5624 5625 5626 5626 5627 5630 5631 5632 5634 5634 5635 5637
5614 5614 5613 5613 5613 5613 5613 5613 5612 5612 5612 5612 5612 5612 5612 5612 5612 5611 5611 5611 5611 5611 5611 5611 5611 5611 5611 5612 5612 5613 5614 5615 5615 5615 5617 5619 5620 5622 5624 5625 5627 5628
5603 5603 5603 5603 5603 5603 5603 5603 5602 5602 5602 5602 5602 5603 5603 5603 5603 5602 5602 5602 5601 5601 5601 5601 5601 5601 5602 5602 5603 5604 5604 5604 5605 5605 5607 5609 5610 5612 5614 5615 5617 5619
5593 5592 5592 5592 5592 5591 5591 5592 5592 5591 5591 5592 5593 5593 5594 5593 5593 5592 5591 5591 5591 5591 5591 5591 5591 5591 5592 5592 5593 5593 5594 5594 5594 5595 5597 5598 5600 5602 5604 5604 5606 5609
5581 5581 5580 5580 5580 5580 5579 5579 5580 5580 5580 5581 5582 5582 5582 5582 5582 5581 5581 5580 5581 5580 5580 5580 5580 5581 5581 5582 5582 5583 5583 5583 5584 5585 5587 5588 5590 5592 5593 5593 5595 5599
5569 5569 5569 5569 5568 5568 5567 5567 5567 5568 5568 5569 5570 5570 5570 5570 5569 5569 5569 5570 5570 5570 5570 5570 5569 5570 5570 5571 5571 5572 5572 5573 5573 5575 5576 5578 5580 5582 5583 5583 5585 5589
5558 5558 5558 5558 5557 5556 5556 5556 5555 5556 5556 5556 5557 5557 5557 5557 5557 5556 5556 5557 5557 5558 5559 5559 5559 5559 5559 5560 5560 5560 5561 5561 5563 5564 5566 5567 5570 5572 5572 5572 5575 5579
5545 5545 5546 5546 5545 5545 5544 5544 5544 5544 5544 5544 5543 5543 5543 5543 5544 5544 5544 5544 5545 5545 5546 5547 5548 5548 5548 5548 5549 5549 5549 5550 5551 5553 5555 5557 5559 5561 5561 5562 5565 5569
5532 5532 5532 5532 5532 5531 5530 5530 5530 5531 5531 5531 5531 5530 5530 5529 5529 5530 5531 5531 5532 5533 5533 5534 5535 5535 5536 5536 5537 5538 5538 5539 5540 5542 5544 5546 5549 5551 5551 5553 5556 5558
5518 5518 5517 5517 5516 5515 5515 5514 5514 5515 5515 5516 5516 5516 5517 5517 5517 5516 5516 5517 5518 5519 5520 5521 5521 5521 5522 5522 5524 5525 5526 5528 5529 5531 5533 5536 5538 5540 5542 5543 5546 5548
5502 5502 5503 5503 5502 5501 5499 5499 5498 5499 5499 5499 5500 5500 5501 5502 5503 5503 5504 5504 5504 5505 5506 5507 5508 5508 5507 5508 5509 5511 5513 5515 5517 5519 5522 5525 5527 5530 5532 5534 5535 5537
5488 5488 5488 5488 5487 5486 5485 5484 5484 5483 5483 5483 5484 5484 5484 5485 5486 5488 5489 5490 5491 5491 5492 5493 5495 5495 5495 5495 5495 5495 5498 5501 5504 5507 5510 5513 5516 5519 5521 5524 5525 5526
5475 5474 5474 5473 5472 5471 5470 5469 5469 5468 5468 5468 5468 5469 5468 5469 5470 5470 5472 5474 5476 5477 5479 5479 5481 5482 5482 5483 5483 5483 5483 5485 5489 5494 5497 5500 5504 5507 5510 5513 5514 5516
5459 5459 5459 5458 5457 5456 5454 5454 5453 5452 5452 5452 5452 5453 5453 5454 5455 5454 5455 5457 5458 5461 5464 5465 5467 5468 5468 5468 5470 5470 5470 5470 5473 5478 5483 5487 5491 5494 5497 5500 5503 5505
5443 5442 5442 5442 5441 5440 5438 5438 5437 5436 5436 5435 5434 5434 5436 5437 5439 5440 5440 5440 5441 5443 5446 5449 5452 5454 5453 5453 5454 5455 5456 5457 5459 5462 5467 5472 5476 5480 5483 5487 5490 5492
5428 5426 5425 5424 5423 5422 5421 5421 5420 5419 5419 5418 5417 5416 5417 5417 5419 5421 5423 5424 5425 5425 5426 5431 5437 5439 5439 5438 5439 5439 5440 5441 5444 5448 5451 5455 5460 5465 5469 5473 5476 5478
5412 5410 5408 5407 5405 5404 5403 5402 5401 5401 5401 5400 5399 5399 5399 5398 5398 5400 5402 5404 5408 5408 5408 5411 5418 5422 5422 5423 5423 5424 5424 5425 5428 5432 5435 5438 5444 5449 5453 5457 5461 5464
5398 5395 5392 5390 5389 5387 5386 5385 5383 5382 5383 5381 5379 5379 5380 5380 5379 5380 5381 5383 5386 5389 5390 5392 5398 5403 5404 5404 5406 5406 5407 5409 5411 5414 5418 5423 5428 5433 5436 5440 5445 5450
5384 5380 5378 5375 5373 5372 5370 5368 5367 5365 5364 5363 5360 5359 5361 5361 5360 5361 5363 5364 5364 5367 5370 5371 5376 5383 5385 5385 5387 5388 5388 5389 5392 5396 5401 5407 5413 5417 5419 5423 5429 5434
5370 5367 5364 5361 5359 5357 5355 5353 5351 5349 5348 5346 5343 5341 5341 5342 5341 5342 5345 5347 5347 5348 5349 5350 5354 5362 5367 5367 5368 5370 5369 5369 5371 5375 5382 5390 5396 5400 5403 5407 5413 5418
5358 5354 5351 5348 5344 5342 5339 5337 5335 5333 5331 5330 5326 5324 5323 5323 5324 5324 5325 5328 5331 5331 5331 5332 5334 5340 5347 5350 5351 5351 5352 5351 5351 5354 5362 5371 5377 5382 5386 5391 5397 5402
Wind_Speed
62 63 63 64 64 64 63 63 63 64 65 66 68 69 69 69 68 69 69 69 69 69 69 69 68 68 68 68 69 70 70 69 68 67 66 65 63 63 61 60 60 60
62 62 62 62 64 64 64 64 64 65 66 68 70 71 72 71 70 70 71 71 72 72 72 72 71 69 68 68 69 71 72 72 71 69 68 66 64 63 62 61 62 62
62 62 62 62 64 65 65 66 66 67 68 70 72 73 74 73 72 72 72 73 74 74 75 75 74 73 70 68 69 70 71 72 72 71 70 68 66 65 64 63 63 63
64 65 65 64 65 66 67 68 68 69 70 71 73 74 75 74 73 73 74 75 75 75 76 76 76 75 73 71 70 70 70 71 72 72 72 70 69 67 66 65 65 64
67 67 67 67 67 68 70 71 71 71 72 73 74 76 76 74 73 74 75 76 77 76 76 76 76 75 75 73 72 71 71 72 72 72 72 71 70 69 68 67 66 65
71 71 71 71 71 71 72 73 74 74 73 74 75 77 77 77 76 76 76 76 76 76 76 76 75 74 74 74 73 72 73 73 73 73 73 72 71 70 69 68 67 65
74 74 75 75 75 75 75 76 77 76 75 74 75 76 77 78 80 82 81 78 76 75 76 76 76 75 74 74 73 72 73 73 74 74 73 72 71 70 69 69 68 66
76 77 78 78 78 78 78 79 79 78 75 74 74 77 79 80 83 86 86 83 79 76 75 76 76 76 75 74 73 72 72 73 73 74 74 73 72 70 69 69 68 68
79 80 81 81 81 80 80 79 80 81 79 78 79 81 82 82 84 87 88 86 84 81 79 77 76 76 76 76 74 73 72 72 72 73 73 73 73 71 70 69 69 69
80 82 83 84 83 81 79 77 77 79 80 82 84 85 83 82 84 86 88 88 86 84 83 80 78 76 76 76 76 75 74 72 71 71 72 73 73 72 71 70 70 69
77 80 83 85 86 86 84 81 79 80 81 84 85 86 86 86 86 87 88 88 87 85 83 82 81 80 79 78 77 76 75 74 73 71 71 71 72 72 71 71 71 70
78 80 82 84 86 87 87 86 85 86 87 88 88 86 86 87 87 87 87 87 85 83 80 78 77 78 79 79 79 78 76 75 74 73 72 71 71 71 71 71 71 71
86 87 89 89 90 90 90 89 89 89 90 91 92 91 88 87 87 88 88 88 88 86 84 81 78 77 77 77 77 77 77 77 75 74 73 73 72 72 72 72 72 72
93 94 95 96 97 97 96 95 95 94 94 94 95 96 94 92 91 90 90 90 91 91 91 89 86 84 82 80 78 77 77 78 78 76 74 73 73 74 74 74 74 75
97 98 99 99 100 100 100 99 98 98 98 98 99 100 100 99 97 96 95 94 94 93 93 93 91 90 88 86 83 80 78 78 78 79 78 76 75 75 76 76 76 77
101 101 100 100 100 100 100 100 100 99 99 99 100 100 101 101 100 99 99 99 99 98 97 94 93 92 91 90 87 85 82 80 79 80 81 81 78 77 77 78 79 79
103 102 101 100 100 99 99 99 99 99 98 98 99 99 99 100 100 100 99 99 100 101 100 97 94 92 91 91 91 90 88 86 83 81 82 83 83 81 80 80 81 82
101 101 100 99 99 99 99 99 99 99 98 98 99 99 99 100 100 101 100 99 99 100 101 100 97 94 92 92 92 92 92 91 89 86 84 84 84 85 84 83 83 83
102 102 101 101 101 101 102 102 102 102 102 102 102 101 101 101 101 102 102 102 101 100 101 101 100 97 96 95 94 93 94 94 93 91 88 86 86 86 87 86 86 85
105 105 105 105 105 105 106 106 106 106 106 106 107 107 106 105 105 104 104 104 104 103 103 102 102 101 100 99 99 97 96 96 96 95 93 91 88 88 88 88 89 89
106 107 107 108 108 108 109 109 109 110 110 110 111 111 111 111 110 109 108 108 107 107 107 105 104 103 104 103 103 102 101 100 99 99 98 96 93 90 89 89 90 92
105 106 107 108 108 109 109 109 110 110 111 111 112 113 114 114 115 115 114 113 111 110 110 109 107 107 107 107 107 106 105 104 103 102 101 100 97 94 92 91 91 92
102 103 104 105 105 105 106 106 107 107 108 108 110 111 113 114 115 116 117 117 116 115 113 112 111 109 109 109 110 110 109 108 106 105 104 103 101 97 94 92 92 92
96 97 98 99 100 100 100 101 102 103 104 104 105 107 108 110 112 113 114 116 116 117 116 115 113 111 110 109 110 112 113 112 110 108 106 105 104 102 99 95 93 93
92 93 94 95 96 96 96 97 97 98 99 100 101 102 102 104 105 107 109 111 112 113 114 114 114 112 110 109 109 110 111 114 115 113 109 106 105 104 104 101 96 94
89 90 91 91 92 92 93 93 93 94 94 94 96 97 97 98 98 100 101 103 104 106 108 109 111 111 109 107 107 108 108 110 114 115 113 110 107 105 105 105 102 99
Wind_Direction
264 263 264 265 265 265 265 265 264 264 264 262 260 258 256 255 254 254 254 254 255 255 256 257 258 259 259 260 260 260 260 260 260 259 259 260 261 260 259 257 255 254
262 260 260 260 259 259 260 260 259 259 260 260 258 257 256 255 254 255 255 255 255 255 255 256 256 257 258 258 259 259 260 260 260 259 259 258 258 257 257 256 255 255
260 259 258 258 257 257 257 257 257 256 256 257 256 256 256 255 255 256 256 255 255 255 256 256 255 256 256 256 256 257 258 259 259 259 258 257 256 255 255 254 254 255
258 257 257 257 258 257 257 257 256 255 255 256 256 256 256 256 257 257 257 256 256 255 256 256 255 255 255 254 254 254 255 256 257 257 257 257 257 256 254 253 253 254
255 255 256 255 256 257 257 256 255 254 254 255 256 256 256 258 259 261 260 258 256 255 255 255 255 254 254 254 253 253 253 254 254 255 256 257 257 256 254 253 252 252
255 255 256 255 256 256 256 255 254 253 252 254 256 258 259 260 261 263 263 261 258 256 255 255 255 254 253 253 253 253 253 253 254 254 255 255 256 255 254 253 253 252
255 255 255 255 256 256 256 255 253 252 252 253 255 258 261 262 262 262 263 262 260 257 256 256 255 254 253 253 252 252 253 253 253 254 254 254 254 254 254 254 253 252
257 256 255 254 255 255 255 254 253 252 252 253 255 259 262 264 263 261 261 261 260 258 257 255 255 255 254 254 253 253 253 253 253 254 254 253 253 253 253 253 253 251
256 256 255 255 254 254 253 253 252 253 253 254 257 262 264 264 263 260 259 258 258 258 257 256 254 254 254 254 253 253 253 253 253 253 253 253 252 251 251 251 252 251
257 256 256 255 255 255 255 255 254 254 255 256 259 262 263 262 260 259 257 257 257 258 258 257 256 255 254 254 253 253 253 252 252 253 253 252 251 250 250 250 250 250
262 261 260 259 258 259 259 259 259 258 259 260 260 259 258 257 255 255 254 254 254 255 256 258 259 258 258 256 255 254 253 252 252 252 252 252 251 250 249 249 249 249
268 268 267 265 264 262 262 261 261 262 263 264 263 259 256 254 254 253 253 253 253 252 253 254 256 258 259 259 258 256 254 253 252 252 252 252 252 250 249 249 248 248
269 270 270 270 269 267 266 264 262 262 262 264 264 263 261 259 257 257 256 255 255 254 254 253 254 256 257 259 259 259 258 256 254 252 252 252 252 251 250 248 247 247
271 272 272 271 270 269 269 267 265 264 263 262 263 263 264 263 263 262 262 260 259 258 257 256 254 255 256 258 259 259 260 260 258 255 252 251 252 252 251 249 248 247
273 274 274 273 271 270 270 269 268 267 265 264 263 263 263 263 263 264 264 264 264 262 261 260 259 258 258 259 260 260 260 260 260 259 256 253 252 252 252 251 249 248
274 274 273 272 271 271 270 270 270 269 268 267 266 265 264 263 263 262 262 262 263 264 264 263 263 263 263 263 263 263 262 261 260 259 258 255 253 253 252 251 249 248
274 273 273 272 271 270 270 270 270 270 269 269 268 268 266 265 264 262 261 260 260 260 262 263 263 263 264 265 265 265 264 262 260 259 258 256 254 253 253 252 250 248
272 272 272 271 271 271 270 270 269 269 269 268 268 268 268 267 266 264 263 261 259 257 258 259 261 262 262 263 264 264 265 264 262 260 258 257 254 253 252 252 251 249
273 272 272 271 271 271 271 270 270 270 269 268 268 267 267 267 267 267 266 264 262 259 257 256 257 259 261 262 262 262 263 264 264 262 259 258 256 254 252 251 251 251
274 274 273 273 272 272 271 271 270 270 270 269 269 268 267 266 266 266 266 266 265 263 260 257 255 255 257 260 261 262 262 262 262 262 261 259 257 255 253 251 250 250
275 275 275 274 274 273 273 272 272 271 270 270 269 269 268 267 266 265 265 265 265 265 264 261 259 256 255 256 258 260 260 260 260 261 261 259 258 256 255 252 250 249
276 276 276 275 275 275 274 274 273 272 271 271 270 269 268 267 266 266 265 264 263 264 264 263 262 260 258 257 256 257 257 258 258 258 258 259 258 256 255 253 252 250
277 277 277 276 276 275 275 274 274 273 272 271 270 269 268 267 266 266 265 264 264 263 262 262 262 261 261 259 258 257 257 256 256 256 256 256 257 256 254 253 252 251
278 277 277 277 276 276 275 275 274 274 273 272 271 270 269 267 266 265 264 264 264 263 263 262 261 260 260 260 259 258 258 257 256 255 254 254 254 255 254 252 251 251
279 279 278 278 278 277 277 276 275 275 274 274 273 272 271 269 268 266 265 264 264 264 263 262 261 260 259 259 259 258 258 258 257 256 254 253 252 252 252 252 251 250
281 281 281 280 280 279 279 278 277 276 275 274 274 273 272 271 270 269 267 265 264 264 263 263 262 261 259 258 258 258 257 257 257 256 255 253 251 250 249 249 249 249